Wind_Speed
59 63 65 66 67 67 67 64 57 49 42 39 38 39 41 44 47 49 51 52 52 52 51 49 47 45 43 41 39 37 35 32 26 22 25 27 28 28 28 26 24 23 24
62 66 66 66 66 65 61 52 43 38 35 36 37 40 44 47 50 52 52 52 52 51 49 47 45 43 42 40 38 36 33 30 24 20 21 23 24 24 24 23 22 22 21
65 66 65 64 63 58 48 39 35 34 35 37 39 43 47 51 52 52 52 51 50 48 47 45 42 41 39 37 36 33 31 28 23 19 20 22 22 21 20 20 20 20 20
64 63 61 60 55 46 38 35 34 35 37 39 43 47 50 52 52 51 50 48 47 46 44 41 39 38 36 34 32 30 28 25 22 20 20 21 21 20 19 18 18 19 19
61 59 57 53 45 39 37 36 37 38 41 44 48 51 52 52 51 49 47 45 45 44 42 39 37 36 33 30 28 26 24 22 21 20 19 19 19 19 17 15 15 15 15
56 55 52 45 40 38 38 38 40 42 46 49 52 53 53 51 49 48 45 43 43 41 39 37 35 32 29 26 24 22 21 19 18 17 16 16 16 15 14 12 11 11 10
53 50 45 40 39 38 39 41 44 47 50 52 53 52 51 50 49 46 44 43 41 38 36 33 31 28 25 22 20 18 17 16 15 13 12 11 11 10 8 7 7 6 5
48 44 40 38 39 40 42 45 48 51 52 53 52 51 50 49 46 44 42 41 38 34 30 28 27 24 22 19 17 15 13 12 11 10 10 9 8 6 5 5 5 4 1
42 39 37 38 40 42 44 47 50 51 51 51 51 50 48 46 44 41 39 35 32 28 25 25 23 20 18 15 14 13 11 10 10 9 9 8 7 6 6 7 6 4 3
37 36 37 39 41 44 46 48 49 49 50 51 51 49 45 43 41 37 33 29 26 24 23 22 20 17 13 11 11 11 10 10 9 9 9 8 8 8 9 9 8 6 5
34 35 38 40 43 45 46 47 48 49 51 51 49 46 43 41 37 33 29 25 23 21 20 19 16 12 8 8 10 11 10 9 9 9 10 11 11 12 13 11 9 8 7
33 35 38 41 43 44 45 46 48 49 49 47 44 43 41 37 33 29 26 24 21 19 17 14 10 6 5 9 11 11 10 10 10 12 14 15 16 16 15 12 10 9 9
33 36 39 41 42 43 44 45 46 46 45 43 41 38 34 31 28 27 25 23 19 16 12 8 4 3 8 12 14 14 13 13 15 17 19 19 18 17 15 13 10 10 12
33 36 39 39 40 42 42 43 43 42 41 40 36 32 28 26 26 25 23 19 15 10 4 1 2 6 11 15 17 17 16 17 19 21 20 19 17 15 14 13 12 13 17
34 36 38 39 40 41 41 41 40 39 38 35 31 28 25 24 23 21 19 14 9 5 3 4 6 9 14 18 20 19 18 19 21 21 19 17 15 15 14 14 15 18 21
33 35 37 39 40 40 40 39 38 37 35 32 30 27 25 23 21 19 16 11 8 7 7 8 9 12 16 20 22 21 20 20 20 19 18 17 16 16 16 17 19 22 25
33 35 37 39 39 39 39 38 36 35 33 32 30 26 23 20 18 16 13 10 9 9 10 12 12 14 18 22 23 23 21 20 19 18 17 17 17 18 18 19 22 26 28
33 35 37 38 38 37 37 36 34 33 32 31 29 26 21 18 15 13 12 11 10 9 11 13 14 15 18 22 24 23 22 20 19 18 18 19 18 19 19 20 24 27 29
33 35 36 36 36 35 35 34 33 32 31 31 28 25 21 18 14 13 13 12 10 9 10 13 15 16 19 22 23 23 22 21 20 19 19 19 19 19 20 22 24 27 28
32 33 34 34 34 34 34 34 33 32 31 29 27 24 22 19 15 13 13 12 10 9 11 13 16 17 19 21 23 23 23 22 20 19 19 19 19 19 20 22 23 24 25
31 31 31 32 32 33 33 33 32 31 30 29 27 24 22 20 16 13 13 13 11 10 11 14 16 17 18 20 22 23 23 22 20 19 19 19 19 19 20 20 20 21 21
29 30 31 31 32 33 32 32 32 31 30 29 28 26 23 20 17 14 13 13 12 11 11 14 16 17 17 18 20 21 21 21 20 19 18 18 19 19 18 18 17 17 17
28 30 31 32 33 33 32 30 30 29 29 29 28 26 24 21 18 16 14 13 13 12 11 13 15 16 16 16 17 18 19 19 18 17 18 18 18 18 17 15 14 14 14
29 31 33 34 34 32 30 28 27 27 27 28 28 27 25 23 21 19 17 15 14 13 12 12 13 14 15 15 15 15 16 16 16 16 16 17 18 18 16 15 13 12 12
32 35 36 36 35 32 29 26 25 24 25 27 28 27 26 23 21 19 19 18 16 14 13 12 12 13 14 14 13 13 13 13 13 14 14 16 18 18 18 16 14 13 12
36 39 39 38 35 31 28 25 24 23 23 25 27 28 27 24 21 18 17 17 17 16 14 12 12 12 13 14 13 12 12 11 11 12 13 15 17 18 19 18 16 15 14
Wind_Direction
313 314 313 312 311 311 310 308 305 302 298 297 299 301 304 307 310 312 313 313 313 311 307 302 296 290 285 282 284 288 292 293 290 277 265 262 263 267 269 269 268 269 272
314 313 312 312 312 312 311 309 306 302 300 301 303 305 308 310 311 311 312 312 311 309 306 302 297 292 286 281 280 283 286 290 287 273 263 261 265 269 269 266 264 264 267
313 312 312 312 313 313 311 310 307 305 305 306 307 309 311 312 311 311 310 310 309 306 304 301 298 293 287 281 278 278 280 283 280 269 261 264 269 273 271 266 261 261 266
313 313 313 314 314 312 310 309 308 308 309 310 311 311 312 312 311 310 309 307 306 304 303 302 300 295 289 281 276 275 275 277 274 267 262 265 269 272 272 267 261 261 268
313 314 315 315 313 310 309 309 310 311 311 312 312 312 312 311 310 309 308 305 304 303 302 302 301 296 290 281 274 271 269 269 269 267 265 264 266 269 269 266 261 263 272
314 314 315 313 310 309 310 311 311 312 313 314 313 313 312 311 310 309 307 304 302 301 302 301 301 297 290 282 273 266 260 259 262 266 266 263 263 265 262 258 255 260 270
313 313 312 310 309 310 311 312 313 314 315 315 315 314 313 311 310 310 308 304 302 302 301 301 299 295 288 281 272 261 251 250 253 258 257 259 261 259 250 243 242 245 265
312 311 309 309 310 312 314 315 316 317 317 317 317 316 314 312 311 310 308 305 304 303 301 302 300 293 286 278 267 254 243 239 238 244 247 252 253 240 217 201 198 200 282
310 308 308 311 312 314 316 318 319 320 320 319 318 317 315 314 313 312 311 308 305 303 302 305 303 293 283 272 255 239 227 225 228 234 237 239 227 200 173 167 161 141 85
307 308 310 312 314 317 320 321 322 323 322 322 321 320 319 318 317 317 317 313 309 304 303 305 303 294 277 259 234 215 208 213 219 223 221 209 189 167 155 152 141 120 102
306 309 312 314 318 322 324 325 325 325 325 325 325 324 323 323 323 323 323 319 313 307 305 304 301 289 261 225 200 192 195 202 204 199 189 178 165 154 150 146 133 121 117
308 312 315 319 323 326 327 328 329 329 329 329 329 328 327 327 328 327 326 322 317 311 307 303 298 273 201 176 171 170 175 178 176 169 161 153 150 149 150 147 135 126 128
312 316 320 325 328 330 332 332 332 332 332 332 331 330 330 331 333 332 329 325 320 315 311 301 284 187 158 155 154 154 155 154 150 147 145 142 144 148 152 149 138 133 136
317 321 325 330 333 335 335 334 334 335 335 335 335 335 337 338 338 336 334 332 329 328 327 305 144 141 146 148 148 148 147 145 143 142 142 143 147 152 154 149 141 138 138
322 326 331 335 337 337 337 337 337 338 339 340 341 341 342 343 345 346 346 349 358 26 70 108 125 135 143 146 147 146 145 144 143 144 145 148 153 157 154 147 141 141 140
328 334 337 339 339 339 339 340 341 343 345 345 345 344 344 347 351 357 4 19 43 63 82 99 112 129 141 146 147 145 144 144 143 144 147 151 154 154 150 144 141 143 142
336 341 342 342 342 343 344 345 346 348 350 351 351 351 352 354 1 10 24 41 57 73 88 92 105 125 140 147 148 148 148 149 148 147 150 150 150 149 146 142 142 145 145
343 345 345 345 347 348 350 351 352 355 357 358 359 2 5 8 15 27 37 49 63 80 95 95 104 124 139 147 149 150 152 154 154 152 151 150 148 146 143 140 143 147 147
348 349 350 351 352 354 356 358 360 2 3 4 7 12 17 21 29 37 42 49 61 83 105 106 105 120 136 146 151 152 153 154 154 153 153 152 149 144 141 140 143 148 150
352 353 355 356 358 360 2 5 6 8 9 11 14 19 24 30 36 43 45 49 63 87 110 115 109 117 132 142 148 150 152 153 153 152 151 151 149 145 141 141 144 150 154
356 358 0 2 3 5 7 10 11 13 14 17 19 22 27 32 38 45 49 51 64 91 113 119 117 119 129 140 147 151 154 155 155 153 151 151 150 147 145 144 146 150 156
0 2 4 5 6 8 9 12 14 16 18 20 22 25 28 33 38 44 50 54 65 86 112 123 123 124 130 140 149 154 157 158 158 158 157 157 156 153 150 147 148 153 159
6 5 5 5 6 7 9 11 14 18 22 24 26 28 31 35 40 46 53 62 71 83 104 121 128 130 133 140 150 159 164 166 166 165 164 165 164 163 159 157 156 158 162
10 8 6 5 4 5 7 10 14 20 25 29 30 32 35 39 45 50 56 65 72 81 94 112 125 132 134 137 145 155 164 170 173 174 174 174 175 175 174 174 173 172 172
13 11 8 6 5 5 7 11 16 23 28 32 34 34 37 41 47 52 56 60 66 74 84 101 118 126 130 132 136 144 154 163 171 179 183 184 183 184 184 186 188 188 186
16 13 11 9 9 11 13 16 21 27 32 35 37 37 38 41 46 50 52 55 58 64 73 89 109 121 127 130 132 135 141 148 157 167 177 183 186 188 190 192 194 195 193
Height
5751 5743 5734 5725 5716 5706 5697 5687 5678 5671 5666 5662 5658 5653 5648 5642 5635 5627 5620 5612 5604 5596 5589 5582 5577 5572 5568 5565 5563 5560 5557 5553 5552 5551 5549 5548 5548 5548 5549 5549 5550 5550 5549
5740 5731 5722 5713 5703 5694 5684 5674 5667 5662 5658 5654 5649 5644 5638 5631 5623 5615 5607 5599 5591 5584 5576 5569 5564 5559 5556 5553 5552 5550 5548 5546 5544 5544 5542 5541 5541 5542 5542 5542 5542 5542 5541
5728 5720 5711 5701 5692 5683 5674 5666 5661 5656 5651 5646 5641 5634 5627 5619 5611 5602 5594 5586 5578 5571 5564 5557 5552 5547 5544 5542 5541 5540 5540 5538 5537 5537 5536 5535 5535 5535 5536 5536 5536 5535 5534
5717 5708 5699 5690 5682 5673 5666 5660 5655 5649 5644 5638 5631 5624 5616 5607 5598 5589 5580 5572 5565 5557 5551 5546 5540 5536 5532 5531 5530 5530 5531 5531 5530 5530 5530 5530 5530 5530 5530 5530 5530 5529 5529
5705 5697 5689 5681 5673 5666 5660 5654 5648 5642 5635 5628 5621 5613 5604 5594 5585 5576 5568 5560 5552 5545 5539 5534 5530 5525 5522 5520 5521 5522 5523 5523 5523 5523 5524 5524 5524 5524 5524 5524 5524 5524 5524
5695 5687 5680 5672 5665 5659 5653 5647 5640 5633 5625 5617 5609 5600 5590 5581 5571 5563 5555 5548 5541 5534 5529 5524 5519 5515 5513 5511 5512 5514 5515 5516 5517 5517 5518 5518 5519 5519 5519 5520 5520 5520 5520
5685 5678 5672 5665 5659 5652 5646 5639 5631 5623 5615 5606 5596 5586 5576 5567 5558 5550 5543 5535 5528 5523 5519 5514 5510 5507 5505 5504 5505 5506 5508 5510 5511 5513 5514 5514 5515 5515 5516 5516 5517 5518 5518
5677 5671 5664 5658 5652 5645 5638 5630 5621 5612 5603 5593 5583 5573 5564 5554 5546 5539 5531 5522 5517 5513 5509 5505 5502 5499 5497 5497 5498 5500 5503 5505 5507 5509 5510 5511 5512 5512 5513 5515 5516 5517 5516
5670 5664 5658 5652 5645 5638 5630 5621 5611 5601 5592 5582 5571 5562 5552 5543 5535 5527 5519 5512 5507 5503 5500 5497 5494 5492 5491 5491 5493 5495 5498 5501 5503 5505 5507 5508 5509 5511 5513 5514 5516 5517 5516
5664 5658 5652 5645 5638 5630 5621 5611 5601 5591 5581 5571 5560 5550 5540 5532 5524 5517 5510 5504 5499 5496 5493 5490 5488 5486 5485 5486 5489 5492 5495 5497 5500 5502 5504 5506 5508 5510 5513 5515 5517 5517 5517
5658 5653 5646 5639 5630 5621 5612 5602 5592 5582 5571 5560 5550 5540 5531 5523 5515 5509 5503 5497 5493 5489 5487 5484 5482 5481 5481 5483 5486 5489 5492 5495 5497 5500 5502 5505 5508 5511 5514 5516 5518 5519 5519
5653 5647 5640 5632 5623 5613 5604 5594 5583 5573 5562 5551 5541 5532 5523 5515 5508 5502 5497 5492 5487 5484 5481 5479 5478 5477 5478 5481 5484 5487 5490 5493 5495 5498 5502 5505 5508 5512 5515 5517 5519 5520 5521
5648 5642 5634 5625 5615 5606 5596 5586 5576 5565 5555 5545 5535 5526 5517 5510 5503 5497 5492 5486 5482 5479 5477 5476 5475 5476 5477 5480 5484 5487 5490 5493 5496 5500 5503 5507 5510 5513 5517 5519 5521 5522 5523
5644 5636 5628 5619 5609 5600 5590 5580 5570 5560 5550 5540 5530 5521 5513 5506 5500 5494 5488 5483 5479 5476 5475 5475 5475 5476 5478 5481 5485 5488 5491 5494 5498 5502 5506 5509 5513 5516 5519 5521 5523 5524 5527
5639 5630 5621 5613 5604 5595 5585 5575 5565 5556 5545 5536 5526 5518 5511 5504 5498 5492 5486 5481 5478 5476 5475 5476 5476 5477 5479 5482 5486 5490 5494 5497 5501 5504 5508 5512 5515 5518 5521 5523 5525 5527 5531
5634 5625 5616 5608 5599 5590 5581 5571 5561 5551 5541 5532 5523 5515 5508 5502 5497 5491 5486 5483 5480 5479 5478 5478 5478 5479 5481 5485 5489 5493 5497 5501 5504 5508 5511 5514 5517 5520 5523 5525 5528 5531 5535
5629 5620 5612 5604 5595 5585 5576 5567 5557 5548 5538 5529 5521 5513 5506 5501 5496 5492 5488 5485 5484 5482 5482 5481 5481 5482 5484 5488 5492 5496 5500 5504 5507 5511 5514 5517 5521 5523 5526 5529 5531 5535 5539
5625 5617 5609 5600 5591 5582 5573 5564 5555 5545 5537 5528 5520 5512 5506 5501 5497 5494 5491 5489 5487 5486 5485 5485 5485 5486 5488 5491 5495 5499 5503 5507 5510 5514 5517 5521 5524 5527 5530 5532 5535 5539 5543
5622 5615 5606 5597 5589 5580 5572 5562 5553 5545 5536 5528 5520 5514 5508 5503 5500 5497 5494 5492 5490 5489 5489 5488 5489 5490 5492 5495 5499 5502 5506 5510 5513 5516 5520 5524 5527 5530 5533 5537 5540 5544 5548
5621 5613 5605 5597 5589 5580 5571 5562 5553 5545 5538 5530 5523 5517 5511 5506 5503 5500 5498 5495 5493 5492 5492 5492 5493 5494 5496 5499 5502 5506 5509 5513 5516 5520 5523 5527 5530 5534 5537 5540 5544 5548 5552
5620 5612 5605 5597 5589 5580 5571 5563 5555 5547 5540 5533 5526 5520 5514 5510 5506 5504 5501 5499 5497 5496 5495 5496 5497 5498 5500 5503 5506 5510 5513 5517 5520 5524 5527 5530 5534 5537 5541 5544 5548 5551 5555
5619 5612 5605 5597 5589 5580 5572 5565 5557 5550 5543 5536 5529 5523 5518 5514 5510 5507 5505 5503 5501 5499 5499 5500 5501 5502 5504 5507 5510 5513 5516 5520 5524 5527 5530 5533 5537 5540 5544 5547 5550 5554 5557
5620 5613 5605 5597 5589 5581 5573 5566 5560 5553 5546 5540 5533 5527 5522 5517 5514 5511 5508 5507 5505 5504 5503 5504 5505 5507 5508 5510 5513 5516 5519 5523 5526 5529 5533 5536 5540 5543 5546 5550 5553 5555 5558
5621 5613 5605 5596 5588 5581 5574 5567 5561 5556 5550 5544 5538 5532 5527 5522 5518 5515 5513 5511 5510 5508 5508 5508 5509 5511 5512 5514 5516 5519 5522 5525 5528 5531 5535 5538 5541 5545 5548 5551 5554 5557 5559
5622 5614 5605 5596 5588 5580 5574 5568 5563 5558 5553 5548 5543 5537 5532 5527 5524 5521 5519 5516 5515 5513 5513 5513 5513 5515 5516 5518 5520 5522 5525 5527 5530 5532 5535 5539 5542 5545 5549 5552 5555 5557 5560
5623 5615 5606 5597 5588 5581 5574 5569 5565 5561 5557 5552 5547 5542 5537 5532 5529 5526 5524 5522 5520 5519 5518 5517 5517 5518 5520 5522 5524 5525 5527 5529 5532 5534 5536 5539 5542 5545 5549 5552 5555 5558 5560